Temperature
17 17 18 18 17 17 18 18 18 18 18 18 18 18 18 18 18 18 18 18 18 18 18 18 18 18 18 18 18 18 18 18 18 18 18 18 18 18 18 18 18 18 18
17 17 18 17 17 17 18 18 18 18 18 18 18 18 18 18 18 18 18 18 18 18 18 18 18 18 18 18 18 18 18 18 18 18 18 18 18 18 18 18 18 17 18
17 17 17 17 17 17 18 18 18 17 17 17 17 17 18 18 18 18 18 18 18 18 18 18 18 18 18 18 18 18 18 18 18 18 18 17 17 18 18 18 18 18 18
17 17 17 17 17 17 18 18 18 17 17 17 17 17 18 18 18 18 18 18 18 18 18 18 18 18 18 18 18 18 18 18 18 17 17 17 17 17 18 18 18 18 18
17 17 17 17 17 17 17 17 17 17 17 17 17 17 17 17 17 17 17 17 17 17 17 18 17 18 18 18 17 17 18 18 17 17 17 17 17 17 17 17 17 17 17
17 17 17 17 17 17 17 17 17 17 17 17 17 17 17 17 17 17 17 17 17 17 17 17 17 17 17 17 17 17 17 17 17 17 17 17 17 17 17 17 17 17 17
17 17 17 17 17 17 17 17 17 17 17 17 17 17 17 17 17 17 17 17 17 17 17 17 17 17 17 17 17 17 17 17 17 17 17 17 17 17 17 17 17 17 17
17 17 17 17 17 17 17 17 17 17 17 17 17 17 17 17 17 17 17 17 17 17 17 17 17 17 17 17 17 17 17 17 16 16 16 16 17 17 17 17 17 17 17
17 17 16 16 17 17 17 17 17 17 17 17 17 17 17 17 17 17 17 17 17 17 17 17 17 17 17 17 17 17 17 17 16 16 16 16 16 17 17 17 17 17 17
17 17 17 16 16 16 16 17 17 17 17 17 17 17 17 16 16 16 16 16 16 17 17 17 17 17 17 17 17 17 16 16 16 16 16 16 16 17 17 16 16 16 16
17 17 17 16 16 16 16 16 16 16 16 16 16 16 16 16 16 16 16 16 16 16 16 16 16 16 16 16 16 16 16 16 15 15 16 16 16 16 16 16 16 16 16
17 17 17 16 16 16 16 16 16 16 16 16 16 16 16 16 16 16 16 16 16 16 16 16 16 16 16 15 16 16 15 15 15 15 15 16 16 16 16 16 16 16 16
17 16 16 16 16 16 16 16 16 16 16 16 16 16 16 16 16 15 16 15 15 15 15 15 15 15 15 15 15 15 15 15 15 15 15 15 15 16 16 16 16 16 16
17 16 16 16 16 16 16 16 16 16 16 15 15 15 15 15 15 15 15 15 15 15 15 15 15 15 15 15 15 15 15 15 15 15 15 15 15 15 15 15 15 15 15
17 16 16 16 16 16 16 16 16 15 15 15 15 15 15 15 15 15 15 15 15 15 15 15 15 15 15 15 15 15 15 15 15 15 15 15 15 15 15 15 15 15 15
17 17 16 16 16 16 16 16 16 15 15 15 15 15 15 15 15 15 15 15 15 15 15 15 15 15 15 15 15 15 15 14 14 14 14 14 15 15 15 15 15 15 15
17 16 16 16 16 16 16 16 15 15 15 15 15 15 15 15 15 15 15 15 14 14 14 14 14 14 14 14 14 14 14 14 14 14 14 14 14 14 14 14 14 14 14
17 16 16 16 16 16 16 16 15 15 15 15 15 15 15 15 15 14 14 14 14 14 14 14 14 14 14 14 14 14 14 14 14 14 14 14 14 14 14 14 14 14 14
17 16 16 16 16 16 16 15 15 15 15 15 15 15 14 14 14 14 14 14 14 14 14 14 14 14 14 14 14 14 14 14 14 13 13 14 14 13 14 14 14 14 14
16 16 16 16 16 16 15 15 15 15 15 14 14 14 14 14 14 14 14 14 14 14 14 14 14 14 14 14 13 13 13 13 13 13 13 13 13 13 13 13 13 13 13
16 16 16 16 16 15 15 15 15 15 14 14 14 14 14 14 14 14 14 14 14 14 14 14 14 13 13 13 13 13 13 13 13 13 13 13 13 13 13 13 13 13 13
16 16 16 16 15 15 15 15 15 14 14 14 14 14 14 14 14 14 14 14 14 14 14 14 14 13 13 13 13 14 14 13 13 13 13 13 13 13 13 13 12 12 12
16 16 16 15 15 15 15 15 15 14 14 14 14 14 14 14 14 14 13 13 13 13 13 13 13 13 13 13 13 13 14 14 13 13 13 12 12 12 12 12 12 12 12
16 16 15 15 15 15 15 14 14 14 14 14 14 14 14 14 13 13 13 13 13 13 13 13 13 13 13 13 13 13 13 13 14 13 13 12 12 12 12 12 12 12 12
16 15 15 15 15 15 15 14 14 14 14 14 14 14 14 14 13 13 13 13 13 13 13 13 13 13 13 13 13 13 13 13 13 13 13 12 12 12 12 12 12 12 11
16 15 15 15 15 15 15 14 14 14 14 14 14 14 14 13 13 13 13 13 13 13 13 13 13 13 13 13 13 13 13 13 13 13 13 13 12 12 12 12 12 12 11
Wind_Speed
2 3 5 5 6 7 8 7 8 8 8 9 9 9 9 9 9 10 10 10 10 10 10 10 11 11 11 11 11 11 11 11 10 9 9 9 9 9 9 9 8 8 10
3 3 4 5 6 7 7 7 8 8 9 10 10 10 10 9 10 9 10 10 10 10 11 10 11 11 11 11 11 11 12 11 11 10 9 11 11 11 10 9 7 8 10
3 4 4 6 6 7 8 8 8 9 11 11 11 11 10 10 10 10 10 11 11 11 11 11 11 11 12 11 11 12 12 11 10 8 6 8 10 10 10 10 9 9 9
4 4 5 6 7 8 9 9 10 11 12 12 12 12 11 11 11 11 11 11 12 11 11 11 11 11 11 11 12 11 11 10 8 4 6 8 8 10 9 9 9 9 8
5 5 8 7 8 9 10 10 11 12 12 12 12 13 13 13 13 12 13 12 12 12 11 11 11 11 11 11 11 11 11 9 7 6 7 7 8 10 9 9 9 8 8
6 6 8 8 9 10 10 11 12 12 13 13 13 13 13 13 13 13 13 13 13 13 12 11 11 11 11 11 11 10 9 6 5 7 7 7 8 9 9 9 9 8 8
6 7 9 9 10 11 11 12 12 13 13 13 13 13 13 13 14 14 14 14 14 14 13 12 11 11 11 11 10 9 8 5 6 7 7 7 8 9 9 8 8 8 8
6 7 8 9 10 11 11 12 12 13 13 13 13 13 13 14 14 14 14 14 14 14 14 13 12 11 11 11 10 9 7 4 6 6 7 7 9 9 8 8 8 8 7
6 6 6 7 9 10 11 12 13 13 13 13 13 13 14 14 14 14 14 15 14 13 13 12 12 11 11 10 9 8 7 5 6 5 6 7 9 9 9 8 8 7 7
6 6 6 6 7 8 10 12 12 12 13 13 13 13 12 12 13 13 13 14 13 13 12 12 12 11 10 10 9 7 4 3 6 6 6 8 9 8 9 8 8 8 8
5 5 5 6 6 7 8 9 9 10 10 9 10 9 7 9 10 11 14 13 13 13 12 12 11 10 9 9 8 5 3 5 6 6 7 9 9 9 9 9 9 9 9
6 5 4 5 5 6 6 6 6 6 7 7 7 7 7 8 9 10 12 12 12 11 11 10 8 7 5 6 5 3 4 5 5 6 8 10 9 9 9 9 10 9 9
5 5 4 4 4 5 4 4 4 4 5 5 6 7 6 7 7 7 7 7 8 7 8 7 6 7 7 6 5 6 6 5 5 6 8 9 9 9 10 10 10 10 9
4 4 4 4 4 4 4 4 4 3 4 4 5 6 5 4 4 5 5 6 5 6 6 6 5 7 8 8 7 7 6 5 5 5 8 9 9 9 9 10 10 10 10
5 4 4 4 4 4 4 3 3 4 4 5 5 5 5 4 4 4 5 5 5 5 5 5 5 6 7 7 7 7 6 7 7 6 8 11 9 9 9 9 10 10 10
5 4 4 4 3 4 3 3 3 4 4 4 4 4 5 4 4 4 4 4 5 5 5 4 5 5 5 5 6 7 6 6 7 7 7 9 11 10 10 10 9 9 9
5 5 5 4 4 3 3 3 3 3 3 3 4 4 4 4 4 4 4 4 4 4 4 4 5 5 5 5 6 6 6 6 6 7 7 7 8 11 11 10 9 9 10
5 5 5 4 4 4 3 3 3 3 3 3 3 3 4 4 4 4 3 3 4 4 3 3 3 4 4 4 4 4 5 5 6 6 7 7 7 7 9 10 9 9 9
5 6 6 5 5 4 3 3 3 3 3 2 3 3 2 3 3 3 3 3 3 3 3 3 3 3 4 3 4 4 4 4 5 5 6 7 7 6 7 8 9 9 9
5 5 6 5 4 4 3 3 3 3 2 2 2 2 2 2 2 3 2 3 3 3 3 2 3 3 3 2 3 4 4 4 4 4 5 5 5 6 6 6 5 7 9
6 6 5 5 5 4 3 3 3 3 2 2 1 2 2 2 2 2 2 2 2 2 2 2 2 3 2 2 2 3 3 3 3 3 3 3 4 4 4 5 5 4 5
7 6 6 6 6 5 3 2 2 2 2 2 2 2 2 1 1 1 1 1 1 1 1 2 1 1 2 0 0 1 2 3 2 2 2 2 3 3 3 4 4 4 4
7 7 6 7 7 6 5 3 3 2 2 2 2 2 2 2 1 1 1 1 1 1 1 1 1 1 1 1 1 1 1 0 1 2 2 1 2 2 2 3 3 3 3
7 7 7 7 7 7 7 5 5 4 3 3 3 2 2 2 2 2 2 1 2 1 1 2 1 1 1 1 1 1 1 1 1 1 2 1 1 1 1 1 2 2 3
7 7 7 7 7 7 7 6 5 4 4 3 3 3 3 3 2 2 2 2 2 2 2 2 2 2 2 2 1 1 1 1 2 1 1 1 1 1 1 1 1 1 2
7 7 7 7 7 7 7 7 7 6 4 4 4 4 3 2 2 2 2 2 2 2 2 2 2 3 2 2 2 2 2 2 1 1 2 2 1 1 1 1 0 0 1
Wind_Direction
61 43 38 35 43 50 55 63 70 76 79 82 83 82 84 84 80 81 86 89 90 92 93 95 99 100 97 95 95 96 96 94 94 96 96 94 95 98 102 116 133 129 125
82 63 50 43 50 51 54 65 72 73 79 81 79 78 80 84 85 85 88 92 93 97 97 96 96 96 96 94 92 91 90 90 91 93 98 99 92 90 94 98 97 109 121
89 75 77 51 53 56 58 65 75 77 79 78 76 75 75 80 83 84 88 91 93 96 96 96 95 94 94 92 89 87 86 85 86 93 106 102 96 88 91 95 98 106 113
87 78 71 59 61 64 63 69 77 82 79 76 74 69 73 81 81 80 83 87 89 91 91 93 94 95 94 91 89 85 85 82 80 90 93 90 94 92 92 94 98 102 106
87 80 75 67 69 69 69 77 81 82 81 76 73 69 74 79 79 79 80 83 85 86 87 89 91 92 93 92 89 87 87 86 86 83 81 84 86 90 92 93 100 99 100
90 83 80 67 70 71 75 79 81 80 80 78 75 75 75 77 78 79 80 81 82 83 82 83 87 88 90 92 90 87 87 90 98 83 81 85 88 89 89 90 98 100 100
94 88 87 75 73 73 77 80 79 78 79 79 76 76 76 78 80 80 79 79 79 78 78 78 82 84 85 86 86 83 80 75 83 84 83 82 83 87 87 89 96 100 102
96 92 95 89 79 76 75 77 77 78 80 79 77 74 75 76 77 80 80 78 78 75 74 74 75 78 80 81 81 78 66 45 85 83 82 83 79 82 87 88 92 97 102
97 94 92 95 96 89 80 75 74 73 76 78 77 75 74 74 76 79 81 79 79 78 77 76 74 73 75 78 78 77 70 50 74 78 84 83 88 86 85 87 90 93 100
102 96 94 95 90 92 92 81 77 73 72 74 76 74 76 82 82 80 82 78 77 75 73 73 73 73 75 74 72 72 76 80 71 74 73 80 85 86 85 86 87 89 93
108 102 99 99 96 94 91 92 89 85 80 84 84 83 86 82 81 83 74 75 73 72 72 72 72 74 79 79 69 65 80 79 77 70 68 76 83 85 83 81 81 83 82
123 116 109 105 101 100 95 96 88 87 86 80 80 81 79 79 76 78 83 77 76 76 78 75 76 81 69 77 81 76 76 80 77 78 73 77 85 85 82 80 80 82 81
125 121 118 117 109 103 100 95 85 80 82 83 81 83 84 84 85 79 80 81 77 76 72 78 79 67 67 68 68 69 65 65 72 77 76 76 80 83 82 80 76 78 82
131 130 126 122 114 107 101 95 95 90 83 81 82 85 86 80 74 76 75 71 68 67 64 62 63 70 68 67 66 66 66 61 68 78 76 76 78 82 81 79 76 76 79
146 144 134 132 123 112 103 102 95 89 87 89 84 87 87 84 78 77 79 74 69 67 69 64 65 68 66 63 62 61 60 60 69 78 81 75 73 74 77 79 78 77 75
158 154 144 146 136 125 122 119 104 95 97 91 88 90 91 85 79 76 77 75 69 67 68 72 76 71 66 64 62 62 59 60 67 76 79 80 71 70 72 74 75 75 74
163 160 150 151 147 140 130 120 109 101 98 93 89 91 92 87 85 82 77 77 76 76 77 76 79 76 73 73 69 63 63 61 67 71 72 71 78 76 69 69 70 70 69
170 163 156 158 155 144 139 138 123 110 99 95 92 88 93 93 85 82 79 79 78 77 78 82 82 82 77 73 71 67 69 68 66 66 72 73 68 72 76 68 67 67 65
183 172 163 162 155 148 148 144 130 119 108 100 95 90 93 95 92 88 78 80 81 83 79 81 77 80 83 76 79 76 71 73 69 65 66 65 68 70 76 80 75 67 62
189 180 168 158 155 150 152 154 140 131 133 115 105 99 90 92 93 93 98 92 88 85 78 80 88 84 85 95 97 90 81 86 79 64 61 60 58 64 69 73 79 79 68
191 186 171 167 160 151 152 161 162 158 155 151 140 122 114 109 105 106 114 104 97 91 86 90 94 106 97 101 126 120 113 93 85 81 68 62 62 56 65 72 70 72 84
187 183 177 177 171 166 162 166 171 160 171 167 166 157 152 135 127 123 153 145 134 112 113 100 92 100 102 102 284 169 148 145 110 91 90 74 74 75 61 65 74 71 63
191 187 186 183 175 172 166 162 154 149 167 172 181 185 185 188 185 192 216 194 184 195 183 183 170 193 178 154 345 323 282 132 130 130 98 81 74 82 78 68 69 71 70
194 189 190 188 183 179 175 179 181 191 195 202 197 192 196 205 213 218 217 226 219 223 216 228 226 240 243 216 178 305 339 7 268 158 146 119 98 109 87 89 80 73 74
191 189 191 189 186 184 186 187 197 208 209 202 202 205 208 203 211 212 215 223 230 234 238 240 241 245 251 253 238 212 202 208 265 276 209 166 165 163 141 106 90 66 66
188 188 190 193 190 188 193 196 203 209 212 207 210 213 214 205 206 213 219 221 228 234 236 238 238 242 252 259 252 239 239 241 243 252 254 218 220 175 177 164 166 81 84
Height
1519 1518 1516 1515 1515 1514 1513 1513 1512 1512 1512 1512 1511 1511 1511 1511 1511 1511 1511 1512 1512 1513 1513 1513 1514 1514 1515 1515 1516 1516 1516 1516 1516 1516 1516 1516 1516 1515 1515 1516 1519 1521 1522
1520 1518 1517 1516 1515 1514 1514 1513 1513 1513 1513 1513 1513 1512 1512 1512 1512 1512 1513 1513 1514 1514 1515 1515 1516 1516 1517 1517 1518 1518 1518 1518 1518 1518 1518 1518 1518 1518 1519 1519 1521 1522 1523
1520 1519 1518 1517 1516 1515 1514 1514 1514 1514 1514 1514 1514 1513 1512 1512 1513 1514 1515 1515 1516 1516 1517 1517 1518 1519 1519 1519 1520 1520 1520 1520 1520 1520 1521 1521 1521 1521 1521 1522 1523 1524 1525
1522 1521 1519 1517 1516 1516 1515 1515 1515 1515 1515 1515 1515 1513 1511 1512 1514 1516 1517 1517 1518 1518 1519 1519 1520 1520 1521 1521 1521 1522 1522 1522 1522 1523 1523 1523 1523 1523 1523 1524 1524 1525 1526
1523 1522 1520 1519 1518 1517 1516 1516 1517 1517 1517 1517 1516 1515 1513 1514 1516 1517 1519 1519 1520 1520 1521 1521 1521 1522 1522 1523 1523 1523 1523 1523 1524 1524 1525 1524 1525 1525 1525 1526 1526 1527 1528
1524 1524 1522 1521 1520 1519 1519 1519 1519 1519 1519 1519 1519 1518 1518 1518 1519 1520 1521 1521 1522 1522 1522 1522 1523 1523 1524 1524 1524 1525 1525 1525 1526 1526 1526 1526 1526 1526 1527 1527 1528 1528 1529
1526 1525 1524 1523 1523 1522 1521 1521 1521 1521 1521 1521 1521 1521 1521 1521 1522 1522 1523 1523 1523 1524 1524 1524 1525 1525 1525 1525 1526 1526 1526 1527 1528 1527 1527 1528 1528 1528 1528 1529 1529 1530 1530
1527 1527 1526 1526 1525 1524 1524 1524 1524 1524 1524 1524 1524 1524 1524 1524 1524 1524 1525 1525 1525 1525 1526 1526 1526 1526 1527 1527 1527 1527 1528 1528 1529 1529 1529 1529 1529 1529 1529 1530 1530 1531 1531
1529 1529 1529 1528 1528 1527 1527 1526 1526 1526 1526 1526 1526 1526 1526 1526 1526 1527 1527 1527 1527 1527 1527 1527 1527 1527 1528 1528 1528 1529 1529 1529 1531 1531 1531 1531 1530 1531 1531 1531 1531 1532 1532
1530 1530 1530 1530 1530 1530 1530 1529 1529 1529 1529 1529 1528 1528 1528 1529 1529 1529 1529 1529 1529 1529 1529 1529 1529 1529 1529 1529 1529 1530 1530 1531 1532 1532 1532 1532 1532 1532 1532 1532 1533 1533 1533
1531 1532 1532 1532 1532 1532 1532 1531 1531 1531 1531 1531 1531 1531 1531 1532 1532 1531 1531 1531 1531 1530 1530 1530 1530 1530 1530 1530 1530 1531 1531 1532 1532 1533 1533 1533 1533 1533 1534 1534 1534 1534 1534
1533 1533 1533 1534 1534 1534 1534 1534 1534 1534 1534 1534 1533 1534 1534 1534 1533 1533 1533 1533 1532 1532 1532 1532 1532 1532 1532 1532 1532 1532 1533 1533 1534 1534 1533 1533 1534 1534 1534 1535 1535 1534 1534
1534 1534 1534 1535 1535 1535 1535 1535 1535 1535 1535 1536 1535 1535 1535 1535 1536 1536 1536 1535 1535 1534 1534 1534 1534 1533 1533 1533 1533 1533 1534 1534 1534 1534 1534 1534 1535 1535 1535 1536 1536 1536 1535
1534 1535 1535 1536 1536 1536 1536 1536 1536 1536 1536 1537 1537 1537 1537 1537 1537 1537 1537 1537 1536 1536 1535 1535 1535 1535 1535 1535 1534 1534 1534 1534 1534 1535 1535 1535 1536 1536 1536 1536 1537 1537 1537
1535 1535 1536 1536 1537 1537 1537 1537 1538 1537 1538 1538 1538 1538 1539 1539 1539 1539 1539 1538 1538 1537 1537 1537 1536 1536 1536 1536 1535 1535 1535 1535 1535 1536 1536 1536 1537 1537 1537 1537 1537 1537 1537
1535 1536 1536 1537 1537 1537 1538 1538 1538 1539 1539 1539 1539 1539 1540 1540 1540 1540 1540 1539 1539 1538 1538 1538 1538 1537 1537 1537 1536 1536 1536 1536 1536 1537 1537 1537 1538 1538 1538 1538 1538 1538 1538
1535 1536 1536 1537 1537 1538 1538 1539 1539 1539 1540 1540 1540 1541 1541 1541 1541 1541 1541 1540 1540 1540 1540 1539 1539 1538 1538 1538 1537 1537 1537 1537 1537 1538 1538 1539 1539 1538 1538 1538 1538 1539 1539
1534 1535 1535 1536 1537 1538 1538 1539 1540 1540 1540 1541 1541 1541 1542 1542 1542 1542 1541 1541 1541 1541 1540 1540 1540 1539 1539 1539 1539 1538 1538 1538 1538 1539 1539 1539 1539 1539 1539 1539 1539 1539 1539
1533 1534 1535 1536 1537 1537 1538 1539 1540 1540 1541 1541 1541 1542 1542 1542 1542 1542 1542 1542 1541 1541 1541 1541 1540 1540 1540 1540 1539 1539 1539 1539 1539 1539 1540 1540 1540 1540 1540 1539 1539 1539 1539
1532 1533 1534 1535 1536 1537 1538 1539 1539 1540 1541 1541 1542 1542 1542 1542 1542 1542 1542 1542 1542 1542 1541 1541 1541 1541 1540 1540 1540 1540 1540 1540 1540 1540 1540 1540 1541 1541 1541 1540 1540 1540 1539
1531 1532 1533 1534 1535 1536 1537 1538 1539 1539 1540 1541 1541 1542 1542 1542 1542 1542 1542 1542 1542 1542 1542 1542 1541 1541 1541 1541 1542 1542 1541 1541 1541 1540 1541 1541 1541 1541 1541 1541 1541 1540 1540
1529 1530 1532 1533 1534 1535 1536 1537 1538 1539 1540 1541 1541 1541 1542 1542 1542 1542 1542 1542 1542 1542 1541 1541 1541 1541 1541 1541 1542 1542 1542 1543 1541 1541 1541 1541 1541 1541 1541 1541 1541 1540 1540
1527 1528 1530 1531 1532 1534 1535 1536 1537 1538 1539 1540 1540 1541 1541 1541 1541 1541 1542 1542 1541 1541 1541 1541 1541 1541 1541 1541 1541 1542 1542 1542 1542 1542 1541 1541 1540 1540 1540 1540 1540 1540 1540
1525 1527 1529 1530 1531 1532 1533 1535 1536 1537 1538 1539 1540 1540 1540 1540 1541 1541 1541 1541 1541 1541 1540 1540 1540 1540 1540 1540 1540 1540 1541 1541 1541 1541 1541 1541 1540 1540 1540 1540 1539 1539 1539
1523 1525 1526 1528 1529 1530 1532 1533 1534 1536 1537 1538 1538 1539 1539 1539 1539 1539 1539 1539 1539 1539 1539 1539 1539 1539 1539 1540 1540 1540 1539 1539 1540 1540 1540 1540 1540 1539 1539 1539 1539 1539 1538
1521 1523 1524 1526 1527 1528 1530 1531 1532 1534 1535 1536 1537 1537 1538 1538 1538 1538 1538 1538 1538 1538 1538 1538 1538 1538 1538 1538 1538 1539 1539 1539 1539 1539 1539 1539 1539 1539 1538 1538 1538 1538 1537